Location: Columbia
(38.9520°N, 92.3340°W)
Time: 19:36:34
(UTC-06:00)

Meteor 1-4 Rocket - Visible Passes

Search period start: 18 February 2018 00:00
Search period end: 28 February 2018 00:00
Orbit: 452 x 507 km, 81.2° (Epoch: 17 February)

Date Brightness Start Highest point End Pass type
(mag) Time Alt. Az. Time Alt. Az. Time Alt. Az.
20 Feb 5.8 06:06:06 10° NE 06:08:10 14° ENE 06:10:14 10° ESE visible
23 Feb 4.0 06:21:01 10° N 06:24:38 45° ENE 06:28:17 10° SSE visible
23 Feb 4.4 18:31:11 10° ESE 18:32:13 11° E 18:33:17 10° ENE visible
23 Feb 4.1 20:03:42 10° SW 20:06:54 34° WNW 20:08:05 26° NW visible
24 Feb 5.0 05:55:02 10° NNE 05:58:19 27° ENE 06:01:34 10° SE visible
24 Feb 2.9 19:37:07 10° SSW 19:40:36 61° W 19:44:08 10° N visible
25 Feb 5.8 05:29:23 10° NNE 05:31:55 17° ENE 05:34:28 10° ESE visible
25 Feb 2.3 19:10:49 10° S 19:14:19 72° E 19:17:53 10° NNE visible
26 Feb 6.2 05:04:39 10° ENE 05:05:29 11° ENE 05:06:19 10° E visible
26 Feb 2.9 18:44:48 10° SSE 18:48:05 39° E 18:51:28 10° NNE visible
26 Feb 6.1 20:22:41 10° W 20:23:26 10° WNW 20:24:11 10° WNW visible
27 Feb 2.6 06:10:50 10° N 06:14:37 82° W 06:18:24 10° S visible
27 Feb 5.5 19:54:33 10° WSW 19:56:58 17° WNW 19:59:26 10° NNW visible
